Flag for U.S.A. Weather past 2 weeks in Warren, Michigan, U.S.A.

Now
84 °F

Sunny.


Feels Like: 83 °F
Forecast: 67 / 84 °F
Wind: 12 mph from West

Location: Detroit City Airport

Current Time: Jul 31, 2015 at 12:24:43 PM

Latest Report: Jul 31, 2015 at 11:53 AM


Visibility: 10 mi

Pressure: 29.90 "Hg

Humidity: 38%

Dew point: 56 °F

Location of WarrenLocation

Historic Weather in Warren — Graph

°F

Warren temperature yesterday

Maximum temperature yesterday: 85 °F (at 2:53 PM)
Minimum temperature yesterday: 67 °F (at 5:53 AM)
Average temperature yesterday: 77 °F

Past Weeks' High & Low Weather Summary

 TemperatureHumidityPressure
High90 °F (Jul 19, 3:53 PM)93% (Jul 17, 7:53 AM)30.10 "Hg (Jul 17, 7:53 AM)
Low62 °F (Jul 22, 4:53 AM)33% (Jul 21, 4:53 PM)29.26 "Hg (Jul 19, 12:53 PM)
Average77 °F61%29.90 "Hg
* Reported Jul 16 10:53 AM — Jul 31 10:53 AM, Warren, Weather by CustomWeather, © 2015

Note: Actual official high and low records may vary slightly from our data, if they occured in-between our weather recording intervals... More about our weather records

Advertising

Warren weather history for previous 24 hours

 ConditionsComfort  
Time TempWeatherWind HumidityBarometerVisibility
10:53 AM
Fri, Jul 31
81 °FSunny.7 mph45%29.92 "Hg10 mi
9:53 AM79 °FSunny.9 mph47%29.93 "Hg10 mi
8:53 AM75 °FSunny.7 mph58%29.93 "Hg10 mi
7:53 AM70 °FSunny.7 mph66%29.93 "Hg10 mi
6:53 AM68 °FClear.6 mph68%29.93 "Hg10 mi
5:53 AM69 °FClear.7 mph66%29.93 "Hg10 mi
4:53 AM70 °FClear.7 mph64%29.93 "Hg10 mi
3:53 AM70 °FClear.7 mph64%29.93 "Hg10 mi
2:53 AM72 °FClear.7 mph59%29.93 "Hg10 mi
1:53 AM73 °FClear.7 mph57%29.94 "Hg10 mi
12:53 AM74 °FClear.7 mph56%29.94 "Hg10 mi
11:53 PM
Thu, Jul 30
75 °FClear.7 mph54%29.94 "Hg10 mi
10:53 PM77 °FClear.6 mph48%29.94 "Hg10 mi
9:53 PM79 °FSunny.7 mph44%29.93 "Hg10 mi
8:53 PM80 °FSunny.13 mph41%29.92 "Hg10 mi
7:53 PM83 °FSunny.9 mph36%29.91 "Hg10 mi
6:53 PM84 °FSunny.15 mph36%29.90 "Hg10 mi
5:53 PM85 °FSunny.13 mph36%29.90 "Hg10 mi
4:53 PM85 °FSunny.12 mph36%29.91 "Hg10 mi
3:53 PM85 °FSunny.18 mph35%29.91 "Hg10 mi
2:53 PM85 °FSunny.10 mph35%29.92 "Hg10 mi
1:53 PM84 °FSunny.13 mph35%29.93 "Hg10 mi
12:53 PM83 °FSunny.13 mph36%29.94 "Hg10 mi
Weather by CustomWeather, © 2015

See weather overviewHow to use our weather pages